WX9WTF Weather Reports


time (UTC)temp
C
wind
direction
speed
KPH
gust
KPH
rain 1hr
cm
rain 24hr
cm
rain mn
cm
humidity
%
barometer
mb
20260507155835 16 261 1.6 12.9 0.00 0.00 0.00 66 1017.2
20260507155330 16 248 4.8 22.5 0.00 0.00 0.00 59 1017.3
20260507154827 16 238 6.4 9.7 0.00 0.00 0.00 58 1017.5
20260507154325 16 161 4.8 9.7 0.00 0.00 0.00 60 1017.5
20260507153821 16 277 0.0 12.9 0.00 0.00 0.00 60 1017.4
20260507153318 16 191 0.0 4.8 0.00 0.00 0.00 60 1017.6
20260507152814 16 235 4.8 8.0 0.00 0.00 0.00 64 1017.5
20260507152311 16 214 4.8 6.4 0.00 0.00 0.00 64 1017.6
20260507151806 15 253 6.4 14.5 0.00 0.00 0.00 64 1017.8
20260507151303 16 191 3.2 6.4 0.00 0.00 0.00 67 1017.9
20260507150800 15 216 3.2 19.3 0.00 0.00 0.00 64 1017.8
20260507150257 15 200 3.2 6.4 0.00 0.00 0.00 64 1017.8
20260507145753 15 188 0.0 6.4 0.00 0.00 0.00 65 1017.7
20260507145249 15 195 1.6 6.4 0.00 0.00 0.00 66 1017.9
20260507144746 15 231 3.2 6.4 0.00 0.00 0.00 71 1017.9
20260507144244 15 240 6.4 11.3 0.00 0.00 0.00 65 1018.1
20260507143740 15 161 6.4 8.0 0.00 0.00 0.00 68 1017.9
20260507143238 15 266 1.6 6.4 0.00 0.00 0.00 68 1017.8
20260507142734 15 274 0.0 4.8 0.00 0.00 0.00 68 1017.9
20260507142230 15 88 4.8 6.4 0.00 0.00 0.00 70 1017.9
20260507141727 14 225 1.6 6.4 0.00 0.00 0.00 69 1018.2
20260507141224 13 16 3.2 14.5 0.00 0.00 0.00 71 1018.2
20260507140720 15 192 1.6 4.8 0.00 0.00 0.00 69 1018.1
20260507140218 14 175 3.2 4.8 0.00 0.00 0.00 69 1018.1
20260507135714 14 138 3.2 4.8 0.00 0.00 0.00 68 1018.2
20260507135212 13 119 0.0 4.8 0.00 0.00 0.00 71 1018.1
20260507134708 13 157 3.2 6.4 0.00 0.00 0.00 68 1018.1
20260507134204 13 40 0.0 4.8 0.00 0.00 0.00 70 1018.2
20260507133700 13 280 0.0 3.2 0.00 0.00 0.00 71 1017.9
20260507133158 13 115 1.6 4.8 0.00 0.00 0.00 71 1018.2
20260507132655 13 333 3.2 3.2 0.00 0.00 0.00 72 1018.1
20260507132151 12 147 1.6 3.2 0.00 0.00 0.00 74 1018.1
20260507131648 12 156 3.2 4.8 0.00 0.00 0.00 71 1018.2
20260507131145 12 154 0.0 4.8 0.00 0.00 0.00 74 1018.2
20260507130642 11 129 4.8 4.8 0.00 0.00 0.00 74 1018.3
20260507130140 11 209 0.0 3.2 0.00 0.00 0.00 76 1018.4
20260507125638 11 86 3.2 3.2 0.00 0.00 0.00 76 1018.4
20260507125136 10 154 0.0 3.2 0.00 0.00 0.00 78 1018.5
20260507124632 10 170 1.6 3.2 0.00 0.00 0.00 78 1018.4
20260507124130 10 121 0.0 3.2 0.00 0.00 0.00 79 1018.3
20260507123628 10 246 0.0 3.2 0.00 0.00 0.00 79 1018.3
20260507123124 9 123 0.0 3.2 0.00 0.00 0.00 79 1018.3
20260507122620 8 147 1.6 3.2 0.00 0.00 0.00 80 1018.5
20260507122116 8 127 0.0 4.8 0.00 0.00 0.00 82 1018.4
20260507121612 8 243 1.6 4.8 0.00 0.00 0.00 82 1018.5
20260507121108 7 111 0.0 4.8 0.00 0.00 0.00 83 1018.5
20260507120604 7 73 1.6 3.2 0.00 0.00 0.00 85 1018.3
20260507120101 7 127 3.2 3.2 0.00 0.00 0.00 85 1018.2
20260507115557 6 143 0.0 1.6 0.00 0.00 0.00 87 1018.2
20260507115053 6 89 0.0 3.2 0.00 0.00 0.00 87 1018.2
20260507114549 6 73 0.0 1.6 0.00 0.00 0.00 88 1018.1
20260507114046 6 80 1.6 1.6 0.00 0.00 0.00 88 1018.1
20260507113543 6 127 3.2 3.2 0.00 0.00 0.00 87 1017.9
20260507113041 5 122 0.0 3.2 0.00 0.00 0.00 87 1018.1
20260507112538 6 117 1.6 3.2 0.00 0.00 0.00 86 1017.9
20260507112035 6 89 0.0 3.2 0.00 0.00 0.00 85 1017.8
20260507111532 6 124 1.6 3.2 0.00 0.00 0.00 85 1017.8
20260507111029 6 124 3.2 3.2 0.00 0.00 0.00 86 1017.7
20260507110525 6 146 1.6 3.2 0.00 0.00 0.00 86 1017.8
20260507110021 6 127 3.2 3.2 0.00 0.00 0.00 87 1017.8
20260507105519 6 130 1.6 3.2 0.00 0.00 0.00 87 1017.8
20260507105009 5 73 0.0 3.2 0.00 0.00 0.00 86 1017.9
20260507104507 6 152 1.6 3.2 0.00 0.00 0.00 86 1018.2
20260507104002 6 154 0.0 3.2 0.00 0.00 0.00 85 1017.8
20260507103459 6 127 3.2 3.2 0.00 0.00 0.00 85 1017.9
20260507102955 6 116 1.6 3.2 0.00 0.00 0.00 86 1017.6
20260507102452 6 118 1.6 3.2 0.00 0.00 0.00 86 1017.7
20260507101948 5 108 1.6 3.2 0.00 0.00 0.00 87 1017.9
20260507101443 5 122 1.6 3.2 0.00 0.00 0.00 87 1017.9
20260507100940 5 123 3.2 4.8 0.00 0.00 0.00 86 1018.1
20260507100437 5 105 1.6 3.2 0.00 0.00 0.00 86 1017.9
20260507095935 5 141 1.6 3.2 0.00 0.00 0.00 85 1017.9
20260507095433 5 89 0.0 3.2 0.00 0.00 0.00 85 1017.9
20260507094925 5 112 1.6 3.2 0.00 0.00 0.00 85 1018.1
20260507094421 5 127 1.6 3.2 0.00 0.00 0.00 84 1018.1
20260507093918 6 96 1.6 1.6 0.00 0.00 0.00 84 1018.1
20260507093415 6 133 0.0 3.2 0.00 0.00 0.00 83 1018.1
20260507092913 6 124 0.0 3.2 0.00 0.00 0.00 82 1018.3
20260507092409 6 44 0.0 1.6 0.00 0.00 0.00 82 1018.3
20260507091906 6 122 1.6 1.6 0.00 0.00 0.00 83 1018.1
20260507091402 6 115 3.2 3.2 0.00 0.00 0.00 82 1018.2
20260507090859 6 99 1.6 3.2 0.00 0.00 0.00 82 1018.2
20260507090355 6 140 3.2 3.2 0.00 0.00 0.00 82 1018.4
20260507085852 6 80 0.0 1.6 0.00 0.00 0.00 84 1017.9
20260507085349 5 126 0.0 1.6 0.00 0.00 0.00 85 1018.2
20260507084846 5 84 1.6 3.2 0.00 0.00 0.00 84 1017.9
20260507084342 6 68 1.6 3.2 0.00 0.00 0.00 83 1018.3
20260507083840 6 119 0.0 1.6 0.00 0.00 0.00 83 1018.3
20260507083336 6 76 0.0 3.2 0.00 0.00 0.00 82 1018.3
20260507082833 6 89 0.0 1.6 0.00 0.00 0.00 83 1018.1
20260507082328 5 66 0.0 1.6 0.00 0.00 0.00 85 1018.3
20260507081825 5 75 0.0 1.6 0.00 0.00 0.00 85 1018.2
20260507081320 6 111 0.0 3.2 0.00 0.00 0.00 84 1018.1
20260507080818 6 93 1.6 3.2 0.00 0.00 0.00 83 1018.2
20260507080314 6 97 3.2 3.2 0.00 0.00 0.00 81 1018.2
20260507075809 6 89 1.6 3.2 0.00 0.00 0.00 80 1018.1
20260507075307 6 83 3.2 3.2 0.00 0.00 0.00 79 1018.3
20260507074802 6 85 1.6 3.2 0.00 0.00 0.00 78 1018.1
20260507074300 6 89 3.2 3.2 0.00 0.00 0.00 78 1018.3
20260507073757 7 88 3.2 3.2 0.00 0.00 0.00 77 1018.3
20260507073253 7 111 1.6 3.2 0.00 0.00 0.00 77 1018.4
20260507072751 7 92 0.0 3.2 0.00 0.00 0.00 75 1018.3
20260507072249 7 74 1.6 1.6 0.00 0.00 0.00 75 1018.4
20260507071746 7 89 0.0 3.2 0.00 0.00 0.00 73 1018.4
20260507071243 7 147 0.0 3.2 0.00 0.00 0.00 74 1018.4
20260507070740 7 150 0.0 3.2 0.00 0.00 0.00 75 1018.6
20260507070237 7 140 1.6 3.2 0.00 0.00 0.00 77 1018.6
20260507065733 7 89 0.0 1.6 0.00 0.00 0.00 80 1018.7
20260507065230 7 110 1.6 3.2 0.00 0.00 0.00 81 1018.7
20260507064727 6 150 0.0 3.2 0.00 0.00 0.00 82 1018.7
20260507064226 6 80 0.0 1.6 0.00 0.00 0.00 87 1018.9
20260507063723 6 38 1.6 3.2 0.00 0.00 0.00 88 1018.8
20260507063220 6 83 1.6 3.2 0.00 0.00 0.00 89 1019.0
20260507062716 6 79 3.2 3.2 0.00 0.00 0.00 90 1018.7
20260507062214 6 85 3.2 3.2 0.00 0.00 0.00 90 1018.9
20260507061712 6 88 3.2 3.2 0.00 0.00 0.00 92 1019.0
20260507061210 6 84 3.2 3.2 0.00 0.00 0.00 93 1018.8
20260507060708 6 84 3.2 3.2 0.00 0.00 0.00 93 1018.8
20260507060204 5 87 3.2 3.2 0.00 0.00 0.00 94 1018.9
20260507055700 5 92 3.2 3.2 0.00 0.00 0.00 94 1019.0
20260507055156 5 81 1.6 3.2 0.00 0.00 0.00 94 1018.8
20260507054651 5 70 3.2 3.2 0.00 0.00 0.00 94 1018.9
20260507054149 5 64 1.6 3.2 0.00 0.00 0.00 94 1018.9
20260507053646 5 47 1.6 3.2 0.00 0.00 0.00 95 1018.9
20260507053144 5 59 1.6 3.2 0.00 0.00 0.00 95 1018.9
20260507052642 5 55 0.0 1.6 0.00 0.00 0.00 95 1018.8
20260507052138 5 55 0.0 0.0 0.00 0.00 0.00 95 1018.7
20260507051636 4 321 0.0 1.6 0.00 0.00 0.00 95 1018.8
20260507051127 3 45 1.6 1.6 0.00 0.00 0.00 94 1018.8
20260507050624 3 89 0.0 1.6 0.00 0.00 0.00 93 1018.8
20260507050121 3 73 1.6 3.2 0.00 0.05 0.05 93 1018.8
20260507045617 4 67 1.6 3.2 0.00 0.05 0.05 93 1018.8
20260507045109 5 55 0.0 1.6 0.00 0.05 0.05 93 1019.0
20260507044605 5 124 0.0 0.0 0.00 0.05 0.05 93 1019.0
20260507044102 5 49 0.0 0.0 0.00 0.05 0.05 92 1018.9
20260507043558 5 76 0.0 1.6 0.00 0.05 0.05 92 1018.8
20260507043055 5 77 3.2 3.2 0.00 0.05 0.05 91 1018.7
20260507042551 5 84 3.2 4.8 0.00 0.05 0.05 91 1018.7
20260507042047 5 88 3.2 3.2 0.00 0.05 0.05 90 1018.7
20260507041544 5 84 3.2 3.2 0.00 0.05 0.05 88 1019.0
20260507041041 5 68 1.6 3.2 0.00 0.05 0.05 88 1019.2
20260507040537 5 64 0.0 3.2 0.00 0.05 0.05 88 1019.2
20260507040033 5 38 0.0 0.0 0.00 0.05 0.05 88 1019.0
20260507035529 5 67 0.0 1.6 0.00 0.05 0.05 88 1019.1
20260507035026 5 69 0.0 1.6 0.00 0.05 0.05 88 1019.2
20260507034523 5 58 0.0 3.2 0.00 0.05 0.05 87 1019.0
20260507034021 5 69 1.6 3.2 0.00 0.05 0.05 86 1019.0
20260507033519 5 54 0.0 1.6 0.00 0.05 0.05 85 1018.8
20260507033016 5 85 1.6 3.2 0.00 0.05 0.05 86 1018.9
20260507032513 5 78 1.6 1.6 0.00 0.05 0.05 86 1019.1
20260507032009 6 80 0.0 3.2 0.00 0.05 0.05 86 1018.9
20260507031505 6 60 0.0 0.0 0.00 0.05 0.05 85 1018.9
20260507031002 6 78 0.0 1.6 0.00 0.05 0.05 85 1019.0
20260507030459 6 122 0.0 1.6 0.00 0.05 0.05 84 1018.9
20260507025956 6 84 3.2 3.2 0.00 0.05 0.05 80 1018.9
20260507025453 6 73 3.2 3.2 0.00 0.05 0.05 78 1018.6
20260507024951 7 56 0.0 3.2 0.00 0.05 0.05 77 1018.7
20260507024448 7 55 0.0 1.6 0.00 0.05 0.05 77 1018.7
20260507023944 7 76 0.0 0.0 0.00 0.05 0.05 79 1018.8
20260507023441 7 55 0.0 0.0 0.00 0.05 0.05 77 1018.7
20260507022938 7 109 1.6 3.2 0.00 0.05 0.05 72 1018.5
20260507022436 8 63 3.2 3.2 0.00 0.05 0.05 70 1018.5
20260507021931 8 29 0.0 0.0 0.00 0.05 0.05 69 1018.5
20260507021426 8 113 0.0 1.6 0.00 0.05 0.05 72 1018.5
20260507020924 8 55 0.0 1.6 0.00 0.05 0.05 67 1018.4
20260507020421 8 326 0.0 0.0 0.00 0.05 0.05 65 1018.5
20260507015918 8 135 0.0 0.0 0.00 0.05 0.05 65 1018.6
20260507015416 8 81 0.0 3.2 0.00 0.05 0.05 61 1018.4
20260507014913 9 353 0.0 1.6 0.00 0.05 0.05 60 1018.4
20260507014409 10 22 0.0 1.6 0.00 0.05 0.05 62 1018.4
20260507013905 10 22 0.0 1.6 0.00 0.05 0.05 62 1018.2
20260507013403 10 32 0.0 1.6 0.00 0.05 0.05 54 1018.2
20260507012900 10 329 0.0 0.0 0.00 0.05 0.05 52 1018.1
20260507012355 11 329 0.0 0.0 0.00 0.05 0.05 53 1018.1
20260507011852 11 49 0.0 0.0 0.00 0.05 0.05 51 1017.8
20260507011349 11 59 3.2 3.2 0.00 0.05 0.05 47 1017.7
20260507010843 12 74 0.0 3.2 0.00 0.05 0.05 44 1017.6
20260507010340 12 334 0.0 4.8 0.00 0.05 0.05 43 1017.8
20260507005837 13 14 1.6 6.4 0.00 0.05 0.05 40 1017.7
20260507005334 13 341 4.8 6.4 0.00 0.05 0.05 39 1017.7
20260507004831 13 2 9.7 11.3 0.00 0.05 0.05 38 1017.7
20260507004328 13 19 4.8 6.4 0.00 0.05 0.05 38 1017.7
20260507003825 14 332 3.2 9.7 0.00 0.05 0.05 38 1017.7
20260507003320 15 328 11.3 12.9 0.00 0.05 0.05 36 1017.8
20260507002815 15 13 3.2 8.0 0.00 0.05 0.05 37 1017.6
20260507002311 15 45 6.4 8.0 0.00 0.05 0.05 35 1017.8
20260507001809 15 7 3.2 8.0 0.00 0.05 0.05 38 1017.7
20260507001306 14 50 8.0 8.0 0.00 0.05 0.05 37 1017.5
20260507000802 14 38 6.4 8.0 0.00 0.05 0.05 37 1017.5
20260507000259 14 356 6.4 9.7 0.00 0.05 0.05 36 1017.6
20260506235749 15 347 12.9 20.9 0.00 0.05 0.05 35 1017.5
20260506235244 15 0 6.4 17.7 0.00 0.05 0.05 36 1017.7
20260506234742 15 359 4.8 14.5 0.00 0.05 0.05 36 1017.7
20260506234239 15 324 8.0 11.3 0.00 0.05 0.05 36 1017.8
20260506233736 15 45 4.8 8.0 0.00 0.05 0.05 38 1017.7
20260506233232 15 0 6.4 16.1 0.00 0.05 0.05 35 1017.8
20260506232729 15 340 9.7 12.9 0.00 0.05 0.05 35 1017.6
20260506232224 15 0 4.8 9.7 0.00 0.05 0.05 40 1017.6
20260506231722 15 10 9.7 16.1 0.00 0.05 0.05 38 1017.6
20260506231220 15 296 9.7 16.1 0.00 0.05 0.05 36 1017.7
20260506230717 16 358 9.7 12.9 0.00 0.05 0.05 36 1017.5
20260506230214 16 345 4.8 16.1 0.00 0.05 0.05 34 1017.6
20260506225710 16 10 6.4 9.7 0.00 0.05 0.05 36 1017.7
20260506225207 16 21 6.4 16.1 0.00 0.05 0.05 35 1017.6
20260506224703 16 17 3.2 9.7 0.00 0.05 0.05 37 1017.7
20260506224201 16 281 4.8 19.3 0.00 0.05 0.05 35 1017.7
20260506223657 16 352 6.4 6.4 0.00 0.05 0.05 36 1017.6
20260506223153 16 16 1.6 12.9 0.00 0.05 0.05 38 1017.8
20260506222650 16 18 8.0 14.5 0.00 0.05 0.05 35 1017.4
20260506222145 16 54 4.8 8.0 0.00 0.05 0.05 36 1017.7
20260506221644 15 348 9.7 11.3 0.00 0.05 0.05 36 1017.6
20260506221141 16 23 8.0 9.7 0.00 0.05 0.05 37 1017.9
20260506220638 16 17 8.0 14.5 0.00 0.05 0.05 35 1017.8
20260506220133 16 340 6.4 9.7 0.00 0.05 0.05 34 1017.7
20260506215629 16 324 8.0 11.3 0.00 0.05 0.05 36 1017.8
20260506215125 16 19 1.6 12.9 0.00 0.05 0.05 35 1018.1
20260506214622 15 46 11.3 17.7 0.00 0.05 0.05 34 1017.9
20260506214119 15 261 3.2 17.7 0.00 0.05 0.05 39 1018.2
20260506213618 16 348 8.0 9.7 0.00 0.05 0.05 36 1018.4
20260506213114 15 40 12.9 19.3 0.00 0.05 0.05 35 1018.2
20260506212612 15 4 6.4 19.3 0.00 0.05 0.05 35 1018.3
20260506212106 16 92 6.4 12.9 0.00 0.05 0.05 33 1018.1
20260506211602 15 37 9.7 14.5 0.00 0.05 0.05 36 1018.4
20260506211100 15 356 12.9 22.5 0.00 0.05 0.05 36 1018.3
20260506210556 15 355 9.7 14.5 0.00 0.05 0.05 36 1018.2
20260506210053 15 275 14.5 17.7 0.00 0.05 0.05 36 1018.5
20260506205550 15 331 19.3 24.1 0.00 0.05 0.05 36 1018.6
20260506205044 15 288 4.8 25.7 0.00 0.05 0.05 37 1018.6
20260506204543 15 358 11.3 16.1 0.00 0.05 0.05 38 1018.7
20260506204039 15 358 19.3 24.1 0.00 0.05 0.05 35 1018.7
20260506203538 15 35 9.7 19.3 0.00 0.05 0.05 37 1019.0
20260506203034 15 4 8.0 9.7 0.00 0.05 0.05 35 1018.8
20260506202532 15 316 17.7 20.9 0.00 0.05 0.05 34 1019.0
20260506202028 15 344 11.3 17.7 0.00 0.05 0.05 35 1019.0
20260506201526 15 330 6.4 27.4 0.00 0.05 0.05 39 1018.9
20260506201022 15 12 6.4 16.1 0.00 0.05 0.05 39 1018.8
20260506200518 15 339 14.5 20.9 0.00 0.05 0.05 38 1019.1
20260506200015 15 9 11.3 17.7 0.00 0.05 0.05 38 1019.0
20260506195512 15 51 11.3 17.7 0.00 0.05 0.05 37 1019.1
20260506195009 15 19 8.0 16.1 0.00 0.05 0.05 40 1019.1
20260506194507 15 26 8.0 19.3 0.00 0.05 0.05 37 1019.3
20260506194002 15 33 6.4 16.1 0.00 0.05 0.05 36 1019.2
20260506193500 15 352 8.0 14.5 0.00 0.05 0.05 37 1019.3
20260506192956 14 4 4.8 17.7 0.00 0.05 0.05 39 1019.3
20260506192454 14 11 6.4 14.5 0.00 0.05 0.05 41 1019.2
20260506191950 14 298 9.7 12.9 0.00 0.05 0.05 47 1019.4
20260506191447 14 33 4.8 12.9 0.00 0.05 0.05 40 1019.5
20260506190943 13 306 8.0 24.1 0.00 0.05 0.05 36 1019.5
20260506190440 13 322 12.9 29.0 0.00 0.05 0.05 37 1019.4
20260506185936 15 356 11.3 17.7 0.00 0.05 0.05 41 1019.4
20260506185428 14 38 14.5 20.9 0.00 0.05 0.05 43 1019.7
20260506184925 13 348 4.8 20.9 0.00 0.05 0.05 43 1019.5
20260506184422 13 45 6.4 14.5 0.00 0.05 0.05 40 1019.5
20260506183919 13 0 4.8 6.4 0.00 0.05 0.05 44 1019.7
20260506183414 13 315 4.8 14.5 0.00 0.05 0.05 40 1019.6
20260506182912 13 350 6.4 12.9 0.00 0.05 0.05 41 1019.8
20260506182409 13 62 8.0 12.9 0.00 0.05 0.05 40 1019.7
20260506181906 13 38 8.0 14.5 0.00 0.05 0.05 41 1019.8
20260506181404 13 23 4.8 11.3 0.00 0.05 0.05 39 1019.8
20260506180900 13 0 0.0 9.7 0.00 0.05 0.05 41 1019.9
20260506180356 13 9 6.4 8.0 0.00 0.05 0.05 38 1019.9
20260506175853 12 320 6.4 12.9 0.00 0.05 0.05 40 1020.0
20260506175350 12 357 4.8 14.5 0.00 0.05 0.05 40 1020.0
20260506174847 12 347 3.2 9.7 0.00 0.05 0.05 38 1020.2
20260506174344 12 343 6.4 17.7 0.00 0.05 0.05 41 1020.3
20260506173842 12 312 11.3 22.5 0.00 0.05 0.05 40 1020.1
20260506173338 12 310 9.7 9.7 0.00 0.05 0.05 42 1020.2
20260506172836 13 335 12.9 14.5 0.00 0.05 0.05 41 1020.3
20260506172332 13 358 6.4 11.3 0.00 0.05 0.05 45 1020.4
20260506171830 13 341 8.0 11.3 0.00 0.05 0.05 42 1020.1
20260506171327 12 355 17.7 25.7 0.00 0.05 0.05 39 1020.2
20260506170825 13 328 4.8 20.9 0.00 0.05 0.05 42 1020.0
20260506170320 13 0 3.2 12.9 0.00 0.05 0.05 42 1020.1
20260506165819 12 357 11.3 24.1 0.00 0.05 0.05 39 1020.0
20260506165316 13 325 8.0 22.5 0.00 0.05 0.05 40 1020.1
20260506164808 13 265 4.8 24.1 0.00 0.05 0.05 41 1019.9
20260506164304 13 312 3.2 19.3 0.00 0.05 0.05 41 1020.0
20260506163801 13 30 11.3 12.9 0.00 0.05 0.05 46 1020.1
20260506163256 13 319 9.7 14.5 0.00 0.05 0.05 43 1019.9
20260506162752 13 41 14.5 16.1 0.00 0.05 0.05 45 1019.8
20260506162250 13 13 11.3 14.5 0.00 0.05 0.05 39 1019.7
20260506161747 14 325 8.0 11.3 0.00 0.05 0.05 45 1019.7
20260506161244 13 64 6.4 11.3 0.00 0.05 0.05 51 1019.6
20260506160742 13 32 6.4 17.7 0.00 0.05 0.05 44 1019.6
20260506160238 13 352 6.4 17.7 0.00 0.05 0.05 44 1019.5